{"data":{"norad_id":62750,"epoch":"2026-05-24T22:51:53.694720Z","epoch_age_seconds":82277,"freshness":"FRESH","line1":"1 62750U 25014R   26144.95270480  .00019696  00000+0  72290-3 0  9997","line2":"2 62750  43.0010  83.4465 0001040 240.4802 119.5946 15.27600363 74925","mean_motion":15.27600363,"eccentricity":0.000104,"inclination_deg":43.001,"raan_deg":83.4465,"arg_perigee_deg":240.4802,"mean_anomaly_deg":119.5946,"bstar":0.0007229,"rev_number":7492,"period_min":94.265492132513,"perigee_km":482.27456555668,"apogee_km":483.70167958217,"semimajor_km":6861.1251225694,"source":"CELESTRAK","updated_at":"2026-05-25T13:38:19.741370Z"}}